Time,TemperatureF,DewpointF,PressureIn,WindDirection,WindDirectionDegrees,WindSpeedMPH,WindSpeedGustMPH,Humidity,HourlyPrecipIn,Conditions,Clouds,dailyrainin,SoftwareType,DateUTC
2013-06-16 00:05:00,52.3,47.3,29.49,SW,225,0.0,0.0,83,0.00,,,0.00,VWS V14.01,2013-06-15 23:05:00,
2013-06-16 00:10:00,52.3,47.3,29.49,SW,225,0.0,0.0,83,0.00,,,0.00,VWS V14.01,2013-06-15 23:10:00,
2013-06-16 00:15:00,52.2,47.5,29.49,SSW,202,0.0,0.0,84,0.00,,,0.00,VWS V14.01,2013-06-15 23:15:00,
2013-06-16 00:21:00,51.8,47.1,29.49,SSW,202,0.0,0.0,84,0.00,,,0.00,VWS V14.01,2013-06-15 23:21:00,
2013-06-16 00:26:00,51.6,46.9,29.49,South,180,0.0,0.0,84,0.00,,,0.00,VWS V14.01,2013-06-15 23:26:00,
2013-06-16 00:32:00,51.6,46.9,29.49,SSW,202,0.0,0.0,84,0.00,,,0.00,VWS V14.01,2013-06-15 23:32:00,
2013-06-16 00:37:00,51.6,47.2,29.49,SSW,202,0.0,0.0,85,0.00,,,0.00,VWS V14.01,2013-06-15 23:37:00,
2013-06-16 00:43:00,51.4,47.0,29.49,SSW,202,0.0,0.0,85,0.00,,,0.00,VWS V14.01,2013-06-15 23:43:00,
2013-06-16 00:49:00,51.4,47.0,29.49,SW,225,0.0,0.0,85,0.00,,,0.00,VWS V14.01,2013-06-15 23:49:00,
2013-06-16 00:55:00,51.4,47.0,29.49,South,180,0.0,0.0,85,0.00,,,0.00,VWS V14.01,2013-06-15 23:55:00,
2013-06-16 01:00:00,51.3,47.0,29.49,SSW,202,0.0,0.0,85,0.00,,,0.00,VWS V14.01,2013-06-16 00:00:00,
2013-06-16 01:05:00,51.1,46.8,29.49,SSW,202,0.0,0.0,85,0.00,,,0.00,VWS V14.01,2013-06-16 00:05:00,
2013-06-16 01:11:00,51.1,46.8,29.49,SSW,202,0.0,0.0,85,0.00,,,0.00,VWS V14.01,2013-06-16 00:11:00,
2013-06-16 01:16:00,51.1,46.8,29.49,South,180,0.0,0.0,85,0.00,,,0.00,VWS V14.01,2013-06-16 00:16:00,
2013-06-16 01:22:00,51.1,46.8,29.49,SW,225,0.0,0.0,85,0.00,,,0.00,VWS V14.01,2013-06-16 00:22:00,
2013-06-16 01:28:00,50.9,46.9,29.49,SSW,202,0.0,0.0,86,0.00,,,0.00,VWS V14.01,2013-06-16 00:28:00,
2013-06-16 01:34:00,50.9,46.9,29.49,SSW,202,0.0,0.0,86,0.00,,,0.00,VWS V14.01,2013-06-16 00:34:00,
2013-06-16 01:39:00,51.1,47.1,29.49,SSW,202,0.0,0.0,86,0.00,,,0.00,VWS V14.01,2013-06-16 00:39:00,
2013-06-16 01:44:00,51.1,47.1,29.49,SSW,202,0.0,0.0,86,0.00,,,0.00,VWS V14.01,2013-06-16 00:44:00,
2013-06-16 01:50:00,51.1,47.1,29.49,SSE,157,0.0,0.0,86,0.00,,,0.00,VWS V14.01,2013-06-16 00:50:00,
2013-06-16 01:55:00,51.1,47.1,29.49,South,180,0.0,0.0,86,0.00,,,0.00,VWS V14.01,2013-06-16 00:55:00,
2013-06-16 02:00:00,51.1,47.1,29.49,SW,225,0.0,0.0,86,0.00,,,0.00,VWS V14.01,2013-06-16 01:00:00,
2013-06-16 02:06:00,51.1,47.1,29.49,SW,225,0.0,0.0,86,0.00,,,0.00,VWS V14.01,2013-06-16 01:06:00,
2013-06-16 02:12:00,51.4,47.4,29.49,SSW,202,0.0,0.0,86,0.00,,,0.00,VWS V14.01,2013-06-16 01:12:00,
2013-06-16 02:17:00,51.4,47.4,29.49,SSW,202,0.0,0.0,86,0.00,,,0.00,VWS V14.01,2013-06-16 01:17:00,
2013-06-16 02:23:00,51.6,47.2,29.49,SW,225,0.0,0.0,85,0.00,,,0.00,VWS V14.01,2013-06-16 01:23:00,
2013-06-16 02:28:00,51.8,47.1,29.49,SSW,202,0.0,0.0,84,0.00,,,0.00,VWS V14.01,2013-06-16 01:28:00,
2013-06-16 02:33:00,52.0,47.3,29.49,SW,225,0.0,0.0,84,0.00,,,0.00,VWS V14.01,2013-06-16 01:33:00,
2013-06-16 02:38:00,52.0,47.3,29.49,SSW,202,0.0,0.0,84,0.00,,,0.00,VWS V14.01,2013-06-16 01:38:00,
2013-06-16 02:44:00,51.8,47.1,29.49,SW,225,0.0,0.0,84,0.00,,,0.00,VWS V14.01,2013-06-16 01:44:00,
2013-06-16 02:50:00,51.6,46.9,29.49,SW,225,0.0,0.0,84,0.00,,,0.00,VWS V14.01,2013-06-16 01:50:00,
2013-06-16 02:55:00,51.6,46.9,29.49,North,0,0.0,0.0,84,0.00,,,0.00,VWS V14.01,2013-06-16 01:55:00,
2013-06-16 03:00:00,51.6,46.6,29.49,SSW,202,0.0,0.0,83,0.00,,,0.00,VWS V14.01,2013-06-16 02:00:00,
2013-06-16 03:06:00,51.6,46.9,29.49,SW,225,0.0,0.0,84,0.00,,,0.00,VWS V14.01,2013-06-16 02:06:00,
2013-06-16 03:12:00,51.6,46.9,29.49,SSW,202,0.0,0.0,84,0.00,,,0.00,VWS V14.01,2013-06-16 02:12:00,
2013-06-16 03:18:00,51.6,46.9,29.49,SSW,202,0.0,0.0,84,0.00,,,0.00,VWS V14.01,2013-06-16 02:18:00,
2013-06-16 03:24:00,51.4,46.7,29.48,SW,225,0.0,0.0,84,0.00,,,0.00,VWS V14.01,2013-06-16 02:24:00,
2013-06-16 03:29:00,51.4,46.7,29.48,SSW,202,0.0,0.0,84,0.00,,,0.00,VWS V14.01,2013-06-16 02:29:00,
2013-06-16 03:34:00,51.4,46.7,29.48,SSW,202,0.0,0.0,84,0.00,,,0.00,VWS V14.01,2013-06-16 02:34:00,
2013-06-16 03:40:00,51.4,46.7,29.48,North,0,0.0,0.0,84,0.00,,,0.00,VWS V14.01,2013-06-16 02:40:00,
2013-06-16 03:46:00,51.4,46.7,29.49,SSW,202,0.0,0.0,84,0.00,,,0.00,VWS V14.01,2013-06-16 02:46:00,
2013-06-16 03:51:00,51.4,46.7,29.49,SSW,202,0.0,0.0,84,0.00,,,0.00,VWS V14.01,2013-06-16 02:51:00,
2013-06-16 03:56:00,51.4,46.7,29.49,North,0,0.0,0.0,84,0.00,,,0.00,VWS V14.01,2013-06-16 02:56:00,
2013-06-16 04:02:00,51.4,46.7,29.48,SSW,202,0.0,0.0,84,0.00,,,0.00,VWS V14.01,2013-06-16 03:02:00,
2013-06-16 04:07:00,51.6,46.9,29.49,SW,225,0.0,0.0,84,0.00,,,0.00,VWS V14.01,2013-06-16 03:07:00,
2013-06-16 04:13:00,51.6,46.6,29.49,SW,225,0.0,0.0,83,0.00,,,0.00,VWS V14.01,2013-06-16 03:13:00,
2013-06-16 04:19:00,51.6,46.6,29.49,SSW,202,0.0,0.0,83,0.00,,,0.00,VWS V14.01,2013-06-16 03:19:00,
2013-06-16 04:24:00,51.4,46.4,29.49,SW,225,0.0,0.0,83,0.00,,,0.00,VWS V14.01,2013-06-16 03:24:00,
2013-06-16 04:29:00,51.4,46.4,29.49,SSW,202,0.0,0.0,83,0.00,,,0.00,VWS V14.01,2013-06-16 03:29:00,
2013-06-16 04:35:00,51.4,46.4,29.50,SW,225,0.0,0.0,83,0.00,,,0.00,VWS V14.01,2013-06-16 03:35:00,
2013-06-16 04:41:00,51.4,46.4,29.49,SSW,202,0.0,0.0,83,0.00,,,0.00,VWS V14.01,2013-06-16 03:41:00,
2013-06-16 04:46:00,51.4,46.4,29.49,SSW,202,0.0,0.0,83,0.00,,,0.00,VWS V14.01,2013-06-16 03:46:00,
2013-06-16 04:52:00,51.3,46.3,29.50,SSW,202,0.0,0.0,83,0.00,,,0.00,VWS V14.01,2013-06-16 03:52:00,
2013-06-16 04:58:00,51.1,46.4,29.50,SW,225,0.0,0.0,84,0.00,,,0.00,VWS V14.01,2013-06-16 03:58:00,
2013-06-16 05:01:00,51.1,46.4,29.49,SSW,202,0.0,0.0,84,0.00,,,0.00,VWS V14.01,2013-06-16 04:01:00,
2013-06-16 05:02:00,51.1,46.4,29.50,SSW,202,0.0,0.0,84,0.00,,,0.00,VWS V14.01,2013-06-16 04:02:00,
2013-06-16 05:04:00,51.1,46.4,29.50,SW,225,0.0,0.0,84,0.00,,,0.00,VWS V14.01,2013-06-16 04:04:00,
2013-06-16 05:07:00,51.1,46.4,29.50,South,180,0.0,0.0,84,0.00,,,0.00,VWS V14.01,2013-06-16 04:07:00,
2013-06-16 05:10:00,51.1,46.4,29.50,South,180,0.0,0.0,84,0.00,,,0.00,VWS V14.01,2013-06-16 04:10:00,
2013-06-16 05:16:00,51.4,46.7,29.50,SSW,202,0.0,0.0,84,0.00,,,0.00,VWS V14.01,2013-06-16 04:16:00,
2013-06-16 05:22:00,51.6,46.9,29.50,SSW,202,0.0,0.0,84,0.00,,,0.00,VWS V14.01,2013-06-16 04:22:00,
2013-06-16 05:27:00,51.6,46.9,29.50,SW,225,0.0,0.0,84,0.00,,,0.00,VWS V14.01,2013-06-16 04:27:00,
2013-06-16 05:33:00,51.8,46.8,29.50,SSW,202,0.0,0.0,83,0.00,,,0.00,VWS V14.01,2013-06-16 04:33:00,
2013-06-16 05:38:00,52.0,47.0,29.50,SSW,202,0.0,0.0,83,0.00,,,0.00,VWS V14.01,2013-06-16 04:38:00,
2013-06-16 05:43:00,52.3,47.3,29.50,SSW,202,0.0,0.0,83,0.00,,,0.00,VWS V14.01,2013-06-16 04:43:00,
2013-06-16 05:49:00,52.3,47.0,29.50,South,180,0.0,0.0,82,0.00,,,0.00,VWS V14.01,2013-06-16 04:49:00,
2013-06-16 05:55:00,52.3,47.0,29.51,SSW,202,0.0,0.0,82,0.00,,,0.00,VWS V14.01,2013-06-16 04:55:00,
2013-06-16 06:00:00,52.5,47.2,29.51,South,180,0.0,0.0,82,0.00,,,0.00,VWS V14.01,2013-06-16 05:00:00,
2013-06-16 06:06:00,52.5,46.8,29.51,SSW,202,0.0,0.0,81,0.00,,,0.00,VWS V14.01,2013-06-16 05:06:00,
2013-06-16 06:11:00,52.9,47.6,29.51,SW,225,0.0,0.0,82,0.00,,,0.00,VWS V14.01,2013-06-16 05:11:00,
2013-06-16 06:17:00,52.9,47.2,29.51,SW,225,0.0,0.0,81,0.00,,,0.00,VWS V14.01,2013-06-16 05:17:00,
2013-06-16 06:23:00,53.2,47.5,29.51,SW,225,0.0,0.0,81,0.00,,,0.00,VWS V14.01,2013-06-16 05:23:00,
2013-06-16 06:28:00,53.4,47.4,29.51,North,0,0.0,0.0,80,0.00,,,0.00,VWS V14.01,2013-06-16 05:28:00,
2013-06-16 06:33:00,53.6,47.6,29.51,South,180,0.0,0.0,80,0.00,,,0.00,VWS V14.01,2013-06-16 05:33:00,
2013-06-16 06:39:00,54.1,48.1,29.51,SW,225,0.0,0.0,80,0.00,,,0.00,VWS V14.01,2013-06-16 05:39:00,
2013-06-16 06:45:00,54.3,47.9,29.52,South,180,0.0,0.0,79,0.00,,,0.00,VWS V14.01,2013-06-16 05:45:00,
2013-06-16 06:51:00,54.5,48.1,29.52,SW,225,0.0,0.0,79,0.00,,,0.00,VWS V14.01,2013-06-16 05:51:00,
2013-06-16 06:57:00,54.7,48.3,29.52,SW,225,0.0,0.0,79,0.00,,,0.00,VWS V14.01,2013-06-16 05:57:00,
2013-06-16 07:02:00,55.0,48.6,29.52,SSW,202,0.0,0.0,79,0.00,,,0.00,VWS V14.01,2013-06-16 06:02:00,
2013-06-16 07:08:00,55.2,48.5,29.52,SSW,202,0.0,0.0,78,0.00,,,0.00,VWS V14.01,2013-06-16 06:08:00,
2013-06-16 07:14:00,55.9,49.2,29.52,South,180,0.0,0.0,78,0.00,,,0.00,VWS V14.01,2013-06-16 06:14:00,
2013-06-16 07:20:00,56.1,49.0,29.52,SSW,202,0.0,0.0,77,0.00,,,0.00,VWS V14.01,2013-06-16 06:20:00,
2013-06-16 07:25:00,56.3,48.8,29.52,SW,225,0.0,0.0,76,0.00,,,0.00,VWS V14.01,2013-06-16 06:25:00,
2013-06-16 07:30:00,56.5,49.0,29.52,SSW,202,0.0,0.0,76,0.00,,,0.00,VWS V14.01,2013-06-16 06:30:00,
2013-06-16 07:35:00,56.7,49.2,29.52,SSW,202,0.0,0.0,76,0.00,,,0.00,VWS V14.01,2013-06-16 06:35:00,
2013-06-16 07:41:00,56.8,49.3,29.52,South,180,0.0,0.0,76,0.00,,,0.00,VWS V14.01,2013-06-16 06:41:00,
2013-06-16 07:46:00,57.4,49.9,29.52,SW,225,0.0,0.0,76,0.00,,,0.00,VWS V14.01,2013-06-16 06:46:00,
2013-06-16 07:52:00,57.9,50.0,29.52,SSW,202,0.0,0.0,75,0.00,,,0.00,VWS V14.01,2013-06-16 06:52:00,
2013-06-16 07:58:00,58.3,49.7,29.52,SW,225,0.0,0.0,73,0.00,,,0.00,VWS V14.01,2013-06-16 06:58:00,
2013-06-16 08:04:00,58.8,50.2,29.52,SW,225,0.0,0.0,73,0.00,,,0.00,VWS V14.01,2013-06-16 07:04:00,
2013-06-16 08:09:00,59.4,50.4,29.52,SSW,202,0.0,0.0,72,0.00,,,0.00,VWS V14.01,2013-06-16 07:09:00,
2013-06-16 08:15:00,60.1,50.3,29.52,SW,225,0.0,0.0,70,0.00,,,0.00,VWS V14.01,2013-06-16 07:15:00,
2013-06-16 08:20:00,60.6,50.0,29.53,SSW,202,0.0,0.0,68,0.00,,,0.00,VWS V14.01,2013-06-16 07:20:00,
2013-06-16 08:26:00,61.3,50.7,29.53,South,180,0.0,0.0,68,0.00,,,0.00,VWS V14.01,2013-06-16 07:26:00,
2013-06-16 08:31:00,61.7,50.6,29.53,SSW,202,0.0,0.0,67,0.00,,,0.00,VWS V14.01,2013-06-16 07:31:00,
2013-06-16 08:37:00,62.4,50.9,29.53,SSW,202,0.0,0.0,66,0.00,,,0.00,VWS V14.01,2013-06-16 07:37:00,
2013-06-16 08:43:00,63.3,50.9,29.53,SSW,202,0.0,0.0,64,0.00,,,0.00,VWS V14.01,2013-06-16 07:43:00,
2013-06-16 08:48:00,64.0,51.2,29.53,SSW,202,0.0,0.0,63,0.00,,,0.00,VWS V14.01,2013-06-16 07:48:00,
2013-06-16 08:54:00,64.8,51.0,29.53,SW,225,0.0,0.0,61,0.00,,,0.00,VWS V14.01,2013-06-16 07:54:00,
2013-06-16 08:59:00,65.3,51.1,29.53,SSW,202,0.0,0.0,60,0.00,,,0.00,VWS V14.01,2013-06-16 07:59:00,
2013-06-16 09:05:00,65.8,51.1,29.53,South,180,0.0,0.0,59,0.00,,,0.00,VWS V14.01,2013-06-16 08:05:00,
2013-06-16 09:11:00,65.5,49.9,29.53,SW,225,0.0,0.0,57,0.00,,,0.00,VWS V14.01,2013-06-16 08:11:00,
2013-06-16 09:16:00,65.5,50.3,29.52,SW,225,0.0,0.0,58,0.00,,,0.00,VWS V14.01,2013-06-16 08:16:00,
2013-06-16 09:22:00,65.3,49.2,29.53,SW,225,0.0,0.0,56,0.00,,,0.00,VWS V14.01,2013-06-16 08:22:00,
2013-06-16 09:28:00,64.6,49.0,29.53,North,0,0.0,0.0,57,0.00,,,0.00,VWS V14.01,2013-06-16 08:28:00,
2013-06-16 09:34:00,64.9,49.8,29.53,SW,225,0.0,0.0,58,0.00,,,0.00,VWS V14.01,2013-06-16 08:34:00,
2013-06-16 09:40:00,65.1,50.0,29.53,South,180,0.0,0.0,58,0.00,,,0.00,VWS V14.01,2013-06-16 08:40:00,
2013-06-16 09:46:00,65.1,49.5,29.53,SSW,202,0.0,0.0,57,0.00,,,0.00,VWS V14.01,2013-06-16 08:46:00,
2013-06-16 09:52:00,64.9,49.3,29.54,SW,225,0.0,0.0,57,0.00,,,0.00,VWS V14.01,2013-06-16 08:52:00,
2013-06-16 09:57:00,65.3,49.7,29.54,North,0,0.0,0.0,57,0.00,,,0.00,VWS V14.01,2013-06-16 08:57:00,
2013-06-16 10:03:00,65.8,49.2,29.53,SSW,202,0.0,0.0,55,0.00,,,0.00,VWS V14.01,2013-06-16 09:03:00,
2013-06-16 10:08:00,66.0,49.4,29.54,South,180,0.0,0.0,55,0.00,,,0.00,VWS V14.01,2013-06-16 09:08:00,
2013-06-16 10:14:00,65.7,48.6,29.54,South,180,0.0,0.0,54,0.00,,,0.00,VWS V14.01,2013-06-16 09:14:00,
2013-06-16 10:19:00,65.7,48.6,29.54,SW,225,0.0,0.0,54,0.00,,,0.00,VWS V14.01,2013-06-16 09:19:00,
2013-06-16 10:25:00,66.4,49.3,29.54,SSW,202,0.0,0.0,54,0.00,,,0.00,VWS V14.01,2013-06-16 09:25:00,
2013-06-16 10:31:00,66.4,47.7,29.54,SSW,202,0.0,0.0,51,0.00,,,0.00,VWS V14.01,2013-06-16 09:31:00,
2013-06-16 10:36:00,66.0,47.9,29.54,South,180,0.0,0.0,52,0.00,,,0.00,VWS V14.01,2013-06-16 09:36:00,
2013-06-16 10:42:00,66.4,48.3,29.54,SSW,202,0.0,0.0,52,0.00,,,0.00,VWS V14.01,2013-06-16 09:42:00,
2013-06-16 10:48:00,66.7,48.5,29.54,SSW,202,0.0,0.0,52,0.00,,,0.00,VWS V14.01,2013-06-16 09:48:00,
2013-06-16 10:53:00,67.3,48.0,29.54,SW,225,0.0,0.0,50,0.00,,,0.00,VWS V14.01,2013-06-16 09:53:00,
2013-06-16 10:59:00,67.8,49.0,29.54,SW,225,0.0,0.0,51,0.00,,,0.00,VWS V14.01,2013-06-16 09:59:00,
2013-06-16 11:04:00,68.2,48.3,29.54,SW,225,0.0,0.0,49,0.00,,,0.00,VWS V14.01,2013-06-16 10:04:00,
2013-06-16 11:09:00,67.8,48.0,29.54,South,180,0.0,0.0,49,0.00,,,0.00,VWS V14.01,2013-06-16 10:09:00,
2013-06-16 11:15:00,67.6,48.3,29.54,SW,225,0.0,0.0,50,0.00,,,0.00,VWS V14.01,2013-06-16 10:15:00,
2013-06-16 11:21:00,66.7,48.0,29.54,SW,225,0.0,0.0,51,0.00,,,0.00,VWS V14.01,2013-06-16 10:21:00,
2013-06-16 11:26:00,65.7,47.6,29.54,SW,225,0.0,0.0,52,0.00,,,0.00,VWS V14.01,2013-06-16 10:26:00,
2013-06-16 11:31:00,65.1,48.1,29.55,SW,225,0.0,0.0,54,0.00,,,0.00,VWS V14.01,2013-06-16 10:31:00,
2013-06-16 11:36:00,65.5,48.4,29.55,SSW,202,0.0,0.0,54,0.00,,,0.00,VWS V14.01,2013-06-16 10:36:00,
2013-06-16 11:42:00,65.1,47.6,29.54,SSW,202,0.0,0.0,53,0.00,,,0.00,VWS V14.01,2013-06-16 10:42:00,
2013-06-16 11:47:00,64.9,47.4,29.55,SSW,202,0.0,0.0,53,0.00,,,0.00,VWS V14.01,2013-06-16 10:47:00,
2013-06-16 11:53:00,64.4,46.4,29.54,South,180,5.4,5.4,52,0.00,,,0.00,VWS V14.01,2013-06-16 10:53:00,
2013-06-16 11:58:00,64.0,46.5,29.54,SW,225,0.0,0.0,53,0.00,,,0.00,VWS V14.01,2013-06-16 10:58:00,
2013-06-16 12:04:00,63.7,46.8,29.54,SW,225,10.7,10.7,54,0.00,,,0.00,VWS V14.01,2013-06-16 11:04:00,
2013-06-16 12:10:00,64.2,46.7,29.54,South,180,0.0,5.6,53,0.00,,,0.00,VWS V14.01,2013-06-16 11:10:00,
2013-06-16 12:16:00,64.6,47.1,29.55,SSW,202,6.5,6.5,53,0.00,,,0.00,VWS V14.01,2013-06-16 11:16:00,
2013-06-16 12:21:00,64.6,47.1,29.55,SW,225,6.0,8.5,53,0.00,,,0.00,VWS V14.01,2013-06-16 11:21:00,
2013-06-16 12:27:00,65.5,47.4,29.55,SSW,202,0.0,3.4,52,0.00,,,0.00,VWS V14.01,2013-06-16 11:27:00,
2013-06-16 12:33:00,66.0,49.4,29.55,SSW,202,4.0,7.8,55,0.00,,,0.00,VWS V14.01,2013-06-16 11:33:00,
2013-06-16 12:39:00,65.8,50.6,29.55,SSW,202,0.0,0.0,58,0.00,,,0.00,VWS V14.01,2013-06-16 11:39:00,
2013-06-16 12:45:00,66.0,50.3,29.54,SSE,157,0.0,0.0,57,0.00,,,0.00,VWS V14.01,2013-06-16 11:45:00,
2013-06-16 12:51:00,66.4,49.8,29.54,SW,225,0.0,0.0,55,0.00,,,0.00,VWS V14.01,2013-06-16 11:51:00,
2013-06-16 12:56:00,65.5,49.4,29.54,North,0,0.0,0.0,56,0.00,,,0.00,VWS V14.01,2013-06-16 11:56:00,
2013-06-16 13:02:00,64.2,48.7,29.55,South,180,0.0,0.0,57,0.00,,,0.00,VWS V14.01,2013-06-16 12:02:00,
2013-06-16 13:08:00,64.0,48.5,29.54,South,180,0.0,3.8,57,0.00,,,0.00,VWS V14.01,2013-06-16 12:08:00,
2013-06-16 13:14:00,63.3,48.3,29.54,SW,225,0.0,5.8,58,0.00,,,0.00,VWS V14.01,2013-06-16 12:14:00,
2013-06-16 13:20:00,63.1,48.6,29.54,SW,225,3.6,10.5,59,0.00,,,0.00,VWS V14.01,2013-06-16 12:20:00,
2013-06-16 13:25:00,62.4,48.8,29.54,SW,225,2.2,5.8,61,0.00,,,0.00,VWS V14.01,2013-06-16 12:25:00,
2013-06-16 13:31:00,62.8,50.0,29.54,SSW,202,0.0,0.0,63,0.00,,,0.00,VWS V14.01,2013-06-16 12:31:00,
2013-06-16 13:37:00,63.1,50.7,29.55,South,180,0.0,0.0,64,0.00,,,0.00,VWS V14.01,2013-06-16 12:37:00,
2013-06-16 13:42:00,63.0,50.7,29.56,SSW,202,0.0,0.0,64,0.00,,,0.00,VWS V14.01,2013-06-16 12:42:00,
2013-06-16 13:47:00,62.8,50.5,29.56,South,180,0.0,0.0,64,0.00,,,0.00,VWS V14.01,2013-06-16 12:47:00,
2013-06-16 13:52:00,62.6,49.8,29.56,SSW,202,0.0,0.0,63,0.00,,,0.00,VWS V14.01,2013-06-16 12:52:00,
2013-06-16 13:58:00,62.4,50.1,29.56,SSE,157,0.0,0.0,64,0.00,,,0.00,VWS V14.01,2013-06-16 12:58:00,
2013-06-16 14:04:00,63.0,50.7,29.55,South,180,0.0,0.0,64,0.00,,,0.00,VWS V14.01,2013-06-16 13:04:00,
2013-06-16 14:10:00,64.9,52.0,29.56,SSW,202,0.0,0.0,63,0.00,,,0.00,VWS V14.01,2013-06-16 13:10:00,
2013-06-16 14:16:00,67.1,50.9,29.56,SSW,202,0.0,0.0,56,0.00,,,0.00,VWS V14.01,2013-06-16 13:16:00,
2013-06-16 14:22:00,69.8,51.4,29.56,South,180,0.0,0.0,52,0.00,,,0.00,VWS V14.01,2013-06-16 13:22:00,
2013-06-16 14:28:00,71.2,51.6,29.56,SSE,157,0.0,0.0,50,0.00,,,0.00,VWS V14.01,2013-06-16 13:28:00,
2013-06-16 14:34:00,72.0,51.3,29.55,SW,225,0.0,0.0,48,0.00,,,0.00,VWS V14.01,2013-06-16 13:34:00,
2013-06-16 14:39:00,73.2,51.2,29.55,SSW,202,0.0,0.0,46,0.00,,,0.00,VWS V14.01,2013-06-16 13:39:00,
2013-06-16 14:45:00,73.2,51.2,29.55,South,180,0.0,0.0,46,0.00,,,0.00,VWS V14.01,2013-06-16 13:45:00,
2013-06-16 14:51:00,72.1,50.2,29.56,SW,225,0.0,0.0,46,0.00,,,0.00,VWS V14.01,2013-06-16 13:51:00,
2013-06-16 14:56:00,70.5,49.9,29.56,South,180,0.0,0.0,48,0.00,,,0.00,VWS V14.01,2013-06-16 13:56:00,
2013-06-16 15:02:00,69.6,49.1,29.56,SW,225,0.0,0.0,48,0.00,,,0.00,VWS V14.01,2013-06-16 14:02:00,
2013-06-16 15:07:00,68.7,48.8,29.56,South,180,0.0,0.0,49,0.00,,,0.00,VWS V14.01,2013-06-16 14:07:00,
2013-06-16 15:13:00,68.4,48.5,29.56,North,0,0.0,0.0,49,0.00,,,0.00,VWS V14.01,2013-06-16 14:13:00,
2013-06-16 15:19:00,67.6,47.8,29.56,SW,225,0.0,0.0,49,0.00,,,0.00,VWS V14.01,2013-06-16 14:19:00,
2013-06-16 15:25:00,68.2,48.3,29.56,South,180,0.0,0.0,49,0.00,,,0.00,VWS V14.01,2013-06-16 14:25:00,
2013-06-16 15:31:00,70.3,49.7,29.56,South,180,0.0,0.0,48,0.00,,,0.00,VWS V14.01,2013-06-16 14:31:00,
2013-06-16 15:36:00,71.4,49.0,29.56,SW,225,0.0,0.0,45,0.00,,,0.00,VWS V14.01,2013-06-16 14:36:00,
2013-06-16 15:42:00,71.8,48.7,29.55,South,180,0.0,0.0,44,0.00,,,0.00,VWS V14.01,2013-06-16 14:42:00,
2013-06-16 15:47:00,72.3,48.6,29.55,South,180,0.0,0.0,43,0.00,,,0.00,VWS V14.01,2013-06-16 14:47:00,
2013-06-16 15:53:00,74.5,49.3,29.55,South,180,0.0,0.0,41,0.00,,,0.00,VWS V14.01,2013-06-16 14:53:00,
2013-06-16 15:59:00,75.0,49.7,29.56,SSE,157,0.0,0.0,41,0.00,,,0.00,VWS V14.01,2013-06-16 14:59:00,
2013-06-16 16:05:00,73.6,48.5,29.55,SE,135,0.0,0.0,41,0.00,,,0.00,VWS V14.01,2013-06-16 15:05:00,
2013-06-16 16:11:00,72.7,47.7,29.55,South,180,0.0,5.8,41,0.00,,,0.00,VWS V14.01,2013-06-16 15:11:00,
2013-06-16 16:16:00,72.7,48.3,29.55,South,180,0.0,0.0,42,0.00,,,0.00,VWS V14.01,2013-06-16 15:16:00,
2013-06-16 16:22:00,76.6,50.5,29.54,South,180,0.0,0.0,40,0.00,,,0.00,VWS V14.01,2013-06-16 15:22:00,
2013-06-16 16:27:00,77.4,50.5,29.54,South,180,0.0,0.0,39,0.00,,,0.00,VWS V14.01,2013-06-16 15:27:00,
2013-06-16 16:33:00,77.2,49.7,29.54,SSE,157,0.0,0.0,38,0.00,,,0.00,VWS V14.01,2013-06-16 15:33:00,
2013-06-16 16:38:00,79.5,51.0,29.54,SSW,202,0.0,0.0,37,0.00,,,0.00,VWS V14.01,2013-06-16 15:38:00,
2013-06-16 16:44:00,82.2,52.6,29.54,South,180,0.0,0.0,36,0.00,,,0.00,VWS V14.01,2013-06-16 15:44:00,
2013-06-16 16:49:00,83.1,52.6,29.54,South,180,0.0,0.0,35,0.00,,,0.00,VWS V14.01,2013-06-16 15:49:00,
2013-06-16 16:54:00,84.6,53.2,29.53,SSW,202,0.0,0.0,34,0.00,,,0.00,VWS V14.01,2013-06-16 15:54:00,
2013-06-16 16:59:00,84.0,51.0,29.53,SSE,157,0.0,0.0,32,0.00,,,0.00,VWS V14.01,2013-06-16 15:59:00,
2013-06-16 17:05:00,81.5,50.5,29.53,South,180,0.0,0.0,34,0.00,,,0.00,VWS V14.01,2013-06-16 16:05:00,
2013-06-16 17:10:00,82.8,50.8,29.53,South,180,0.0,0.0,33,0.00,,,0.00,VWS V14.01,2013-06-16 16:10:00,
2013-06-16 17:15:00,82.9,51.7,29.52,South,180,0.0,0.0,34,0.00,,,0.00,VWS V14.01,2013-06-16 16:15:00,
2013-06-16 17:21:00,84.4,52.2,29.53,NE,45,0.0,0.0,33,0.00,,,0.00,VWS V14.01,2013-06-16 16:21:00,
2013-06-16 17:27:00,83.5,51.4,29.52,NNE,22,0.0,0.0,33,0.00,,,0.00,VWS V14.01,2013-06-16 16:27:00,
2013-06-16 17:33:00,84.0,51.8,29.52,SSE,157,0.0,0.0,33,0.00,,,0.00,VWS V14.01,2013-06-16 16:33:00,
2013-06-16 17:38:00,82.0,50.1,29.52,SSE,157,0.0,0.0,33,0.00,,,0.00,VWS V14.01,2013-06-16 16:38:00,
2013-06-16 17:43:00,82.6,51.4,29.52,South,180,0.0,0.0,34,0.00,,,0.00,VWS V14.01,2013-06-16 16:43:00,
2013-06-16 17:49:00,79.0,49.0,29.52,South,180,0.0,0.0,35,0.00,,,0.00,VWS V14.01,2013-06-16 16:49:00,
2013-06-16 17:54:00,76.3,48.8,29.52,South,180,0.0,0.0,38,0.00,,,0.00,VWS V14.01,2013-06-16 16:54:00,
2013-06-16 17:59:00,78.6,50.2,29.53,SSE,157,0.0,0.0,37,0.00,,,0.00,VWS V14.01,2013-06-16 16:59:00,
2013-06-16 18:04:00,80.4,51.0,29.52,SSE,157,0.0,0.0,36,0.00,,,0.00,VWS V14.01,2013-06-16 17:04:00,
2013-06-16 18:10:00,78.4,49.3,29.51,SSE,157,0.0,0.0,36,0.00,,,0.00,VWS V14.01,2013-06-16 17:10:00,
2013-06-16 18:16:00,77.2,48.9,29.52,SSE,157,0.0,0.0,37,0.00,,,0.00,VWS V14.01,2013-06-16 17:16:00,
2013-06-16 18:21:00,75.9,48.5,29.52,South,180,0.0,0.0,38,0.00,,,0.00,VWS V14.01,2013-06-16 17:21:00,
2013-06-16 18:27:00,77.5,49.9,29.52,South,180,0.0,0.0,38,0.00,,,0.00,VWS V14.01,2013-06-16 17:27:00,
2013-06-16 18:33:00,79.7,51.2,29.52,South,180,0.0,0.0,37,0.00,,,0.00,VWS V14.01,2013-06-16 17:33:00,
2013-06-16 18:38:00,80.6,51.2,29.52,South,180,0.0,0.0,36,0.00,,,0.00,VWS V14.01,2013-06-16 17:38:00,
2013-06-16 18:44:00,82.6,52.2,29.52,SSE,157,0.0,0.0,35,0.00,,,0.00,VWS V14.01,2013-06-16 17:44:00,
2013-06-16 18:50:00,80.4,50.3,29.52,SSE,157,0.0,0.0,35,0.00,,,0.00,VWS V14.01,2013-06-16 17:50:00,
2013-06-16 18:55:00,76.6,49.1,29.52,South,180,0.0,0.0,38,0.00,,,0.00,VWS V14.01,2013-06-16 17:55:00,
2013-06-16 19:01:00,72.5,47.5,29.52,South,180,0.0,0.0,41,0.00,,,0.00,VWS V14.01,2013-06-16 18:01:00,
2013-06-16 19:07:00,70.5,47.0,29.53,SSE,157,0.0,0.0,43,0.00,,,0.00,VWS V14.01,2013-06-16 18:07:00,
2013-06-16 19:13:00,70.7,47.7,29.53,SSE,157,0.0,0.0,44,0.00,,,0.00,VWS V14.01,2013-06-16 18:13:00,
2013-06-16 19:18:00,73.2,48.8,29.53,SW,225,0.0,0.0,42,0.00,,,0.00,VWS V14.01,2013-06-16 18:18:00,
2013-06-16 19:24:00,75.0,49.1,29.52,SSW,202,0.0,0.0,40,0.00,,,0.00,VWS V14.01,2013-06-16 18:24:00,
2013-06-16 19:30:00,74.3,48.4,29.53,South,180,0.0,0.0,40,0.00,,,0.00,VWS V14.01,2013-06-16 18:30:00,
2013-06-16 19:36:00,74.5,47.9,29.53,South,180,0.0,0.0,39,0.00,,,0.00,VWS V14.01,2013-06-16 18:36:00,
2013-06-16 19:41:00,73.2,47.5,29.53,South,180,0.0,0.0,40,0.00,,,0.00,VWS V14.01,2013-06-16 18:41:00,
2013-06-16 19:47:00,72.0,46.4,29.53,South,180,0.0,0.0,40,0.00,,,0.00,VWS V14.01,2013-06-16 18:47:00,
2013-06-16 19:53:00,71.2,46.3,29.53,SW,225,0.0,0.0,41,0.00,,,0.00,VWS V14.01,2013-06-16 18:53:00,
2013-06-16 19:59:00,70.9,46.0,29.53,SW,225,0.0,0.0,41,0.00,,,0.00,VWS V14.01,2013-06-16 18:59:00,
2013-06-16 20:04:00,70.7,45.9,29.53,South,180,0.0,0.0,41,0.00,,,0.00,VWS V14.01,2013-06-16 19:04:00,
2013-06-16 20:10:00,70.2,46.1,29.54,SSE,157,0.0,0.0,42,0.00,,,0.00,VWS V14.01,2013-06-16 19:10:00,
2013-06-16 20:15:00,69.4,46.0,29.54,South,180,0.0,0.0,43,0.00,,,0.00,VWS V14.01,2013-06-16 19:15:00,
2013-06-16 20:20:00,68.7,45.3,29.54,SSE,157,0.0,0.0,43,0.00,,,0.00,VWS V14.01,2013-06-16 19:20:00,
2013-06-16 20:26:00,66.6,44.6,29.53,SW,225,0.0,0.0,45,0.00,,,0.00,VWS V14.01,2013-06-16 19:26:00,
2013-06-16 20:32:00,64.9,44.2,29.54,South,180,0.0,0.0,47,0.00,,,0.00,VWS V14.01,2013-06-16 19:32:00,
2013-06-16 20:38:00,63.7,43.7,29.54,South,180,0.0,0.0,48,0.00,,,0.00,VWS V14.01,2013-06-16 19:38:00,
2013-06-16 20:43:00,62.8,43.4,29.54,South,180,0.0,0.0,49,0.00,,,0.00,VWS V14.01,2013-06-16 19:43:00,
2013-06-16 20:49:00,62.2,43.3,29.54,South,180,0.0,0.0,50,0.00,,,0.00,VWS V14.01,2013-06-16 19:49:00,
2013-06-16 20:55:00,61.5,43.2,29.54,South,180,0.0,0.0,51,0.00,,,0.00,VWS V14.01,2013-06-16 19:55:00,
2013-06-16 21:01:00,61.2,43.5,29.54,South,180,0.0,0.0,52,0.00,,,0.00,VWS V14.01,2013-06-16 20:01:00,
2013-06-16 21:07:00,60.6,42.9,29.54,South,180,0.0,0.0,52,0.00,,,0.00,VWS V14.01,2013-06-16 20:07:00,
2013-06-16 21:12:00,60.1,42.9,29.55,South,180,0.0,0.0,53,0.00,,,0.00,VWS V14.01,2013-06-16 20:12:00,
2013-06-16 21:18:00,59.7,43.0,29.55,South,180,0.0,0.0,54,0.00,,,0.00,VWS V14.01,2013-06-16 20:18:00,
2013-06-16 21:24:00,59.2,43.1,29.54,South,180,0.0,0.0,55,0.00,,,0.00,VWS V14.01,2013-06-16 20:24:00,
2013-06-16 21:30:00,58.8,43.2,29.54,South,180,0.0,0.0,56,0.00,,,0.00,VWS V14.01,2013-06-16 20:30:00,
2013-06-16 21:35:00,58.6,43.0,29.55,South,180,0.0,0.0,56,0.00,,,0.00,VWS V14.01,2013-06-16 20:35:00,
2013-06-16 21:41:00,58.1,43.0,29.55,South,180,0.0,0.0,57,0.00,,,0.00,VWS V14.01,2013-06-16 20:41:00,
2013-06-16 21:46:00,57.9,43.2,29.56,South,180,0.0,0.0,58,0.00,,,0.00,VWS V14.01,2013-06-16 20:46:00,
2013-06-16 21:51:00,57.9,43.2,29.56,South,180,0.0,0.0,58,0.00,,,0.00,VWS V14.01,2013-06-16 20:51:00,
2013-06-16 21:57:00,57.9,43.7,29.55,South,180,0.0,0.0,59,0.00,,,0.00,VWS V14.01,2013-06-16 20:57:00,
2013-06-16 22:03:00,57.9,43.7,29.55,South,180,0.0,0.0,59,0.00,,,0.00,VWS V14.01,2013-06-16 21:03:00,
2013-06-16 22:08:00,57.9,43.7,29.55,South,180,0.0,0.0,59,0.00,,,0.00,VWS V14.01,2013-06-16 21:08:00,
2013-06-16 22:14:00,57.9,44.1,29.55,South,180,0.0,0.0,60,0.00,,,0.00,VWS V14.01,2013-06-16 21:14:00,
2013-06-16 22:20:00,58.1,44.3,29.56,South,180,0.0,0.0,60,0.00,,,0.00,VWS V14.01,2013-06-16 21:20:00,
2013-06-16 22:25:00,58.1,44.3,29.55,South,180,0.0,0.0,60,0.00,,,0.00,VWS V14.01,2013-06-16 21:25:00,
2013-06-16 22:30:00,58.1,44.3,29.56,South,180,0.0,0.0,60,0.00,,,0.00,VWS V14.01,2013-06-16 21:30:00,
2013-06-16 22:36:00,58.1,44.7,29.56,South,180,0.0,0.0,61,0.00,,,0.00,VWS V14.01,2013-06-16 21:36:00,
2013-06-16 22:42:00,58.1,44.7,29.56,South,180,0.0,0.0,61,0.00,,,0.00,VWS V14.01,2013-06-16 21:42:00,
2013-06-16 22:47:00,58.1,45.2,29.56,NE,45,0.0,0.0,62,0.00,,,0.00,VWS V14.01,2013-06-16 21:47:00,
2013-06-16 22:53:00,57.9,45.0,29.55,NE,45,0.0,0.0,62,0.00,,,0.00,VWS V14.01,2013-06-16 21:53:00,
2013-06-16 22:59:00,57.9,45.4,29.55,NE,45,0.0,0.0,63,0.00,,,0.00,VWS V14.01,2013-06-16 21:59:00,
2013-06-16 23:04:00,57.9,45.4,29.56,NE,45,0.0,0.0,63,0.00,,,0.00,VWS V14.01,2013-06-16 22:04:00,
2013-06-16 23:10:00,57.9,45.4,29.56,NE,45,0.0,0.0,63,0.00,,,0.00,VWS V14.01,2013-06-16 22:10:00,
2013-06-16 23:16:00,57.9,45.4,29.56,NE,45,0.0,0.0,63,0.00,,,0.00,VWS V14.01,2013-06-16 22:16:00,
2013-06-16 23:22:00,57.9,45.4,29.56,NE,45,0.0,0.0,63,0.00,,,0.00,VWS V14.01,2013-06-16 22:22:00,
2013-06-16 23:27:00,57.7,45.2,29.57,NE,45,0.0,0.0,63,0.00,,,0.00,VWS V14.01,2013-06-16 22:27:00,
2013-06-16 23:32:00,57.7,45.6,29.57,NE,45,0.0,0.0,64,0.00,,,0.00,VWS V14.01,2013-06-16 22:32:00,
2013-06-16 23:38:00,57.6,45.5,29.57,NE,45,0.0,0.0,64,0.00,,,0.00,VWS V14.01,2013-06-16 22:38:00,
2013-06-16 23:44:00,57.6,45.5,29.57,ENE,67,0.0,0.0,64,0.00,,,0.00,VWS V14.01,2013-06-16 22:44:00,
2013-06-16 23:49:00,57.6,45.5,29.57,ENE,67,0.0,0.0,64,0.00,,,0.00,VWS V14.01,2013-06-16 22:49:00,
2013-06-16 23:54:00,57.6,45.9,29.56,ENE,67,0.0,0.0,65,0.00,,,0.00,VWS V14.01,2013-06-16 22:54:00,